Time,TemperatureF,DewpointF,PressureIn,WindDirection,WindDirectionDegrees,WindSpeedMPH,WindSpeedGustMPH,Humidity,HourlyPrecipIn,Conditions,Clouds,dailyrainin,SoftwareType,DateUTC
2013-03-27 00:02:00,16.0,10.0,30.30,North,-999,-999.0,-999.0,78,-99.99,,,-99.99,,2013-03-27 05:02:00,
2013-03-27 00:12:00,16.0,10.0,30.30,North,-999,-999.0,-999.0,78,-99.99,,,-99.99,,2013-03-27 05:12:00,
2013-03-27 00:23:00,16.0,10.0,30.30,North,-999,-999.0,-999.0,78,-99.99,,,-99.99,,2013-03-27 05:23:00,
2013-03-27 00:32:00,12.0,9.0,30.30,North,-999,-999.0,-999.0,85,-99.99,,,-99.99,,2013-03-27 05:32:00,
2013-03-27 00:42:00,12.0,9.0,30.30,North,-999,-999.0,-999.0,85,-99.99,,,-99.99,,2013-03-27 05:42:00,
2013-03-27 00:52:00,12.0,9.0,30.30,North,-999,-999.0,-999.0,85,-99.99,,,-99.99,,2013-03-27 05:52:00,
2013-03-27 01:02:00,12.0,9.0,30.30,North,-999,-999.0,-999.0,85,-99.99,,,-99.99,,2013-03-27 06:02:00,
2013-03-27 01:12:00,12.0,9.0,30.29,North,-999,-999.0,-999.0,85,-99.99,,,-99.99,,2013-03-27 06:12:00,
2013-03-27 01:22:00,12.0,9.0,30.29,North,-999,-999.0,-999.0,85,-99.99,,,-99.99,,2013-03-27 06:22:00,
2013-03-27 01:32:00,12.0,9.0,30.30,North,-999,-999.0,-999.0,85,-99.99,,,-99.99,,2013-03-27 06:32:00,
2013-03-27 01:42:00,12.0,9.0,30.30,North,-999,-999.0,-999.0,85,-99.99,,,-99.99,,2013-03-27 06:42:00,
2013-03-27 01:52:00,12.0,9.0,30.30,North,-999,-999.0,-999.0,85,-99.99,,,-99.99,,2013-03-27 06:52:00,
2013-03-27 02:02:00,12.0,9.0,30.30,North,-999,-999.0,-999.0,85,-99.99,,,-99.99,,2013-03-27 07:02:00,
2013-03-27 02:12:00,12.0,9.0,30.30,North,-999,-999.0,-999.0,85,-99.99,,,-99.99,,2013-03-27 07:12:00,
2013-03-27 02:22:00,12.0,9.0,30.30,North,-999,-999.0,-999.0,85,-99.99,,,-99.99,,2013-03-27 07:22:00,
2013-03-27 02:32:00,10.0,5.0,30.29,North,-999,-999.0,-999.0,78,-99.99,,,-99.99,,2013-03-27 07:32:00,
2013-03-27 02:43:00,10.0,5.0,30.29,North,-999,-999.0,-999.0,78,-99.99,,,-99.99,,2013-03-27 07:43:00,
2013-03-27 02:53:00,10.0,7.0,30.29,North,-999,-999.0,-999.0,85,-99.99,,,-99.99,,2013-03-27 07:53:00,
2013-03-27 03:02:00,10.0,7.0,30.29,North,-999,-999.0,-999.0,85,-99.99,,,-99.99,,2013-03-27 08:02:00,
2013-03-27 03:12:00,9.0,3.0,30.29,North,-999,-999.0,-999.0,78,-99.99,,,-99.99,,2013-03-27 08:12:00,
2013-03-27 03:22:00,9.0,3.0,30.29,North,-999,-999.0,-999.0,78,-99.99,,,-99.99,,2013-03-27 08:22:00,
2013-03-27 03:32:00,9.0,3.0,30.29,North,-999,-999.0,-999.0,78,-99.99,,,-99.99,,2013-03-27 08:32:00,
2013-03-27 03:43:00,9.0,3.0,30.29,North,-999,-999.0,-999.0,78,-99.99,,,-99.99,,2013-03-27 08:43:00,
2013-03-27 03:52:00,9.0,3.0,30.28,North,-999,-999.0,-999.0,78,-99.99,,,-99.99,,2013-03-27 08:52:00,
2013-03-27 04:01:00,9.0,3.0,30.28,North,-999,-999.0,-999.0,78,-99.99,,,-99.99,,2013-03-27 09:01:00,
2013-03-27 04:12:00,7.0,1.0,30.28,North,-999,-999.0,-999.0,78,-99.99,,,-99.99,,2013-03-27 09:12:00,
2013-03-27 04:22:00,7.0,1.0,30.28,North,-999,-999.0,-999.0,78,-99.99,,,-99.99,,2013-03-27 09:22:00,
2013-03-27 04:32:00,7.0,1.0,30.27,North,-999,-999.0,-999.0,78,-99.99,,,-99.99,,2013-03-27 09:32:00,
2013-03-27 04:42:00,7.0,1.0,30.27,North,-999,-999.0,-999.0,78,-99.99,,,-99.99,,2013-03-27 09:42:00,
2013-03-27 04:52:00,7.0,1.0,30.26,North,-999,-999.0,-999.0,78,-99.99,,,-99.99,,2013-03-27 09:52:00,
2013-03-27 05:02:00,7.0,1.0,30.26,North,-999,-999.0,-999.0,78,-99.99,,,-99.99,,2013-03-27 10:02:00,
2013-03-27 05:12:00,7.0,1.0,30.26,North,-999,-999.0,-999.0,78,-99.99,,,-99.99,,2013-03-27 10:12:00,
2013-03-27 05:23:00,7.0,1.0,30.26,North,-999,-999.0,-999.0,78,-99.99,,,-99.99,,2013-03-27 10:23:00,
2013-03-27 05:32:00,7.0,1.0,30.26,North,-999,-999.0,-999.0,78,-99.99,,,-99.99,,2013-03-27 10:32:00,
2013-03-27 05:42:00,7.0,1.0,30.26,North,-999,-999.0,-999.0,78,-99.99,,,-99.99,,2013-03-27 10:42:00,
2013-03-27 05:52:00,7.0,1.0,30.26,North,-999,-999.0,-999.0,78,-99.99,,,-99.99,,2013-03-27 10:52:00,
2013-03-27 06:02:00,7.0,1.0,30.26,North,-999,-999.0,-999.0,78,-99.99,,,-99.99,,2013-03-27 11:02:00,
2013-03-27 06:12:00,7.0,1.0,30.27,North,-999,-999.0,-999.0,78,-99.99,,,-99.99,,2013-03-27 11:12:00,
2013-03-27 06:22:00,7.0,1.0,30.27,North,-999,-999.0,-999.0,78,-99.99,,,-99.99,,2013-03-27 11:22:00,
2013-03-27 06:32:00,7.0,1.0,30.27,North,-999,-999.0,-999.0,78,-99.99,,,-99.99,,2013-03-27 11:32:00,
2013-03-27 06:42:00,7.0,1.0,30.27,North,-999,-999.0,-999.0,78,-99.99,,,-99.99,,2013-03-27 11:42:00,
2013-03-27 06:52:00,7.0,1.0,30.27,North,-999,-999.0,-999.0,78,-99.99,,,-99.99,,2013-03-27 11:52:00,
2013-03-27 07:02:00,7.0,1.0,30.27,North,-999,-999.0,-999.0,78,-99.99,,,-99.99,,2013-03-27 12:02:00,
2013-03-27 07:12:00,7.0,1.0,30.28,North,-999,-999.0,-999.0,78,-99.99,,,-99.99,,2013-03-27 12:12:00,
2013-03-27 07:23:00,7.0,1.0,30.28,North,-999,-999.0,-999.0,78,-99.99,,,-99.99,,2013-03-27 12:23:00,
2013-03-27 07:32:00,7.0,1.0,30.28,North,-999,-999.0,-999.0,78,-99.99,,,-99.99,,2013-03-27 12:32:00,
2013-03-27 07:43:00,7.0,1.0,30.28,North,-999,-999.0,-999.0,78,-99.99,,,-99.99,,2013-03-27 12:43:00,
2013-03-27 07:52:00,7.0,1.0,30.28,North,-999,-999.0,-999.0,78,-99.99,,,-99.99,,2013-03-27 12:52:00,
2013-03-27 08:02:00,7.0,1.0,30.28,North,-999,-999.0,-999.0,78,-99.99,,,-99.99,,2013-03-27 13:02:00,
2013-03-27 08:12:00,7.0,1.0,30.28,North,-999,-999.0,-999.0,78,-99.99,,,-99.99,,2013-03-27 13:12:00,
2013-03-27 08:22:00,7.0,1.0,30.28,North,-999,-999.0,-999.0,78,-99.99,,,-99.99,,2013-03-27 13:22:00,
2013-03-27 08:32:00,9.0,3.0,30.29,North,-999,-999.0,-999.0,78,-99.99,,,-99.99,,2013-03-27 13:32:00,
2013-03-27 08:42:00,9.0,3.0,30.29,North,-999,-999.0,-999.0,78,-99.99,,,-99.99,,2013-03-27 13:42:00,
2013-03-27 08:52:00,10.0,5.0,30.29,North,-999,-999.0,-999.0,78,-99.99,,,-99.99,,2013-03-27 13:52:00,
2013-03-27 09:02:00,10.0,5.0,30.29,North,-999,-999.0,-999.0,78,-99.99,,,-99.99,,2013-03-27 14:02:00,
2013-03-27 09:12:00,10.0,5.0,30.29,North,-999,-999.0,-999.0,78,-99.99,,,-99.99,,2013-03-27 14:12:00,
2013-03-27 09:22:00,10.0,5.0,30.29,North,-999,-999.0,-999.0,78,-99.99,,,-99.99,,2013-03-27 14:22:00,
2013-03-27 09:32:00,10.0,5.0,30.29,North,-999,-999.0,-999.0,78,-99.99,,,-99.99,,2013-03-27 14:32:00,
2013-03-27 09:42:00,10.0,5.0,30.29,North,-999,-999.0,-999.0,78,-99.99,,,-99.99,,2013-03-27 14:42:00,
2013-03-27 10:02:00,12.0,9.0,30.29,North,-999,-999.0,-999.0,85,-99.99,,,-99.99,,2013-03-27 15:02:00,
2013-03-27 10:12:00,14.0,10.0,30.29,North,-999,-999.0,-999.0,85,-99.99,,,-99.99,,2013-03-27 15:12:00,
2013-03-27 10:22:00,14.0,10.0,30.29,North,-999,-999.0,-999.0,85,-99.99,,,-99.99,,2013-03-27 15:22:00,
2013-03-27 10:33:00,16.0,10.0,30.30,North,-999,-999.0,-999.0,78,-99.99,,,-99.99,,2013-03-27 15:33:00,
2013-03-27 10:42:00,16.0,10.0,30.30,North,-999,-999.0,-999.0,78,-99.99,,,-99.99,,2013-03-27 15:42:00,
2013-03-27 10:52:00,16.0,10.0,30.30,North,-999,-999.0,-999.0,78,-99.99,,,-99.99,,2013-03-27 15:52:00,
2013-03-27 11:02:00,16.0,10.0,30.30,North,-999,-999.0,-999.0,78,-99.99,,,-99.99,,2013-03-27 16:02:00,
2013-03-27 11:12:00,16.0,12.0,30.31,North,-999,-999.0,-999.0,85,-99.99,,,-99.99,,2013-03-27 16:12:00,
2013-03-27 11:22:00,16.0,12.0,30.31,North,-999,-999.0,-999.0,85,-99.99,,,-99.99,,2013-03-27 16:22:00,
2013-03-27 11:32:00,18.0,12.0,30.30,North,-999,-999.0,-999.0,78,-99.99,,,-99.99,,2013-03-27 16:32:00,
2013-03-27 11:42:00,18.0,12.0,30.30,North,-999,-999.0,-999.0,78,-99.99,,,-99.99,,2013-03-27 16:42:00,
2013-03-27 11:52:00,19.0,16.0,30.31,North,-999,-999.0,-999.0,85,-99.99,,,-99.99,,2013-03-27 16:52:00,
2013-03-27 12:02:00,19.0,16.0,30.31,North,-999,-999.0,-999.0,85,-99.99,,,-99.99,,2013-03-27 17:02:00,
2013-03-27 12:12:00,19.0,16.0,30.31,North,-999,-999.0,-999.0,85,-99.99,,,-99.99,,2013-03-27 17:12:00,
2013-03-27 12:22:00,19.0,16.0,30.31,North,-999,-999.0,-999.0,85,-99.99,,,-99.99,,2013-03-27 17:22:00,
2013-03-27 12:32:00,21.0,19.0,30.31,North,-999,-999.0,-999.0,92,-99.99,,,-99.99,,2013-03-27 17:32:00,
2013-03-27 12:44:00,21.0,19.0,30.31,North,-999,-999.0,-999.0,92,-99.99,,,-99.99,,2013-03-27 17:44:00,
2013-03-27 12:52:00,23.0,19.0,30.30,North,-999,-999.0,-999.0,85,-99.99,,,-99.99,,2013-03-27 17:52:00,
2013-03-27 13:02:00,23.0,19.0,30.30,North,-999,-999.0,-999.0,85,-99.99,,,-99.99,,2013-03-27 18:02:00,
2013-03-27 13:12:00,25.0,21.0,30.30,North,-999,-999.0,-999.0,85,-99.99,,,-99.99,,2013-03-27 18:12:00,
2013-03-27 13:22:00,25.0,21.0,30.30,North,-999,-999.0,-999.0,85,-99.99,,,-99.99,,2013-03-27 18:22:00,
2013-03-27 13:32:00,25.0,21.0,30.30,North,-999,-999.0,-999.0,85,-99.99,,,-99.99,,2013-03-27 18:32:00,
2013-03-27 13:42:00,25.0,21.0,30.30,North,-999,-999.0,-999.0,85,-99.99,,,-99.99,,2013-03-27 18:42:00,
2013-03-27 13:52:00,27.0,23.0,30.30,North,-999,-999.0,-999.0,86,-99.99,,,-99.99,,2013-03-27 18:52:00,
2013-03-27 14:02:00,27.0,23.0,30.30,North,-999,-999.0,-999.0,86,-99.99,,,-99.99,,2013-03-27 19:02:00,
2013-03-27 14:12:00,27.0,25.0,30.29,North,-999,-999.0,-999.0,92,-99.99,,,-99.99,,2013-03-27 19:12:00,
2013-03-27 14:22:00,27.0,25.0,30.29,North,-999,-999.0,-999.0,92,-99.99,,,-99.99,,2013-03-27 19:22:00,
2013-03-27 14:32:00,28.0,25.0,30.29,North,-999,-999.0,-999.0,86,-99.99,,,-99.99,,2013-03-27 19:32:00,
2013-03-27 14:42:00,28.0,25.0,30.29,North,-999,-999.0,-999.0,86,-99.99,,,-99.99,,2013-03-27 19:42:00,
2013-03-27 14:52:00,28.0,25.0,30.29,North,-999,-999.0,-999.0,86,-99.99,,,-99.99,,2013-03-27 19:52:00,
2013-03-27 15:02:00,28.0,25.0,30.29,North,-999,-999.0,-999.0,86,-99.99,,,-99.99,,2013-03-27 20:02:00,
2013-03-27 15:12:00,32.0,27.0,30.29,North,-999,-999.0,-999.0,80,-99.99,,,-99.99,,2013-03-27 20:12:00,
2013-03-27 15:22:00,32.0,27.0,30.29,North,-999,-999.0,-999.0,80,-99.99,,,-99.99,,2013-03-27 20:22:00,
2013-03-27 15:32:00,32.0,27.0,30.29,North,-999,-999.0,-999.0,80,-99.99,,,-99.99,,2013-03-27 20:32:00,
2013-03-27 15:42:00,32.0,27.0,30.29,North,-999,-999.0,-999.0,80,-99.99,,,-99.99,,2013-03-27 20:42:00,
2013-03-27 15:52:00,34.0,27.0,30.28,North,-999,-999.0,-999.0,74,-99.99,,,-99.99,,2013-03-27 20:52:00,
2013-03-27 16:02:00,34.0,27.0,30.28,North,-999,-999.0,-999.0,74,-99.99,,,-99.99,,2013-03-27 21:02:00,
2013-03-27 16:12:00,34.0,28.0,30.28,North,-999,-999.0,-999.0,80,-99.99,,,-99.99,,2013-03-27 21:12:00,
2013-03-27 16:22:00,34.0,28.0,30.28,North,-999,-999.0,-999.0,80,-99.99,,,-99.99,,2013-03-27 21:22:00,
2013-03-27 16:32:00,34.0,28.0,30.28,North,-999,-999.0,-999.0,80,-99.99,,,-99.99,,2013-03-27 21:32:00,
2013-03-27 16:43:00,34.0,28.0,30.28,North,-999,-999.0,-999.0,80,-99.99,,,-99.99,,2013-03-27 21:43:00,
2013-03-27 16:52:00,34.0,27.0,30.27,North,-999,-999.0,-999.0,74,-99.99,,,-99.99,,2013-03-27 21:52:00,
2013-03-27 17:03:00,34.0,27.0,30.27,North,-999,-999.0,-999.0,74,-99.99,,,-99.99,,2013-03-27 22:03:00,
2013-03-27 17:12:00,34.0,27.0,30.27,North,-999,-999.0,-999.0,74,-99.99,,,-99.99,,2013-03-27 22:12:00,
2013-03-27 17:23:00,34.0,27.0,30.27,North,-999,-999.0,-999.0,74,-99.99,,,-99.99,,2013-03-27 22:23:00,
2013-03-27 17:33:00,36.0,28.0,30.26,North,-999,-999.0,-999.0,74,-99.99,,,-99.99,,2013-03-27 22:33:00,
2013-03-27 17:42:00,36.0,28.0,30.26,North,-999,-999.0,-999.0,74,-99.99,,,-99.99,,2013-03-27 22:42:00,
2013-03-27 17:52:00,34.0,27.0,30.26,North,-999,-999.0,-999.0,74,-99.99,,,-99.99,,2013-03-27 22:52:00,
2013-03-27 18:02:00,34.0,27.0,30.26,North,-999,-999.0,-999.0,74,-99.99,,,-99.99,,2013-03-27 23:02:00,
2013-03-27 18:12:00,34.0,27.0,30.26,North,-999,-999.0,-999.0,74,-99.99,,,-99.99,,2013-03-27 23:12:00,
2013-03-27 18:22:00,34.0,27.0,30.26,North,-999,-999.0,-999.0,74,-99.99,,,-99.99,,2013-03-27 23:22:00,
2013-03-27 18:32:00,34.0,27.0,30.26,North,-999,-999.0,-999.0,74,-99.99,,,-99.99,,2013-03-27 23:32:00,
2013-03-27 18:42:00,34.0,27.0,30.26,North,-999,-999.0,-999.0,74,-99.99,,,-99.99,,2013-03-27 23:42:00,
2013-03-27 18:52:00,34.0,27.0,30.27,North,-999,-999.0,-999.0,74,-99.99,,,-99.99,,2013-03-27 23:52:00,
2013-03-27 19:02:00,34.0,27.0,30.27,North,-999,-999.0,-999.0,74,-99.99,,,-99.99,,2013-03-28 00:02:00,
2013-03-27 19:12:00,34.0,27.0,30.27,North,-999,-999.0,-999.0,74,-99.99,,,-99.99,,2013-03-28 00:12:00,
2013-03-27 19:22:00,34.0,27.0,30.27,North,-999,-999.0,-999.0,74,-99.99,,,-99.99,,2013-03-28 00:22:00,
2013-03-27 19:32:00,32.0,27.0,30.27,North,-999,-999.0,-999.0,80,-99.99,,,-99.99,,2013-03-28 00:32:00,
2013-03-27 19:42:00,32.0,27.0,30.27,North,-999,-999.0,-999.0,80,-99.99,,,-99.99,,2013-03-28 00:42:00,
2013-03-27 19:52:00,32.0,27.0,30.27,North,-999,-999.0,-999.0,80,-99.99,,,-99.99,,2013-03-28 00:52:00,
2013-03-27 20:02:00,32.0,27.0,30.27,North,-999,-999.0,-999.0,80,-99.99,,,-99.99,,2013-03-28 01:02:00,
2013-03-27 20:12:00,30.0,25.0,30.28,North,-999,-999.0,-999.0,80,-99.99,,,-99.99,,2013-03-28 01:12:00,
2013-03-27 20:22:00,30.0,25.0,30.28,North,-999,-999.0,-999.0,80,-99.99,,,-99.99,,2013-03-28 01:22:00,
2013-03-27 20:32:00,30.0,25.0,30.28,North,-999,-999.0,-999.0,80,-99.99,,,-99.99,,2013-03-28 01:32:00,
2013-03-27 20:42:00,30.0,25.0,30.28,North,-999,-999.0,-999.0,80,-99.99,,,-99.99,,2013-03-28 01:42:00,
2013-03-27 20:52:00,28.0,25.0,30.27,North,-999,-999.0,-999.0,86,-99.99,,,-99.99,,2013-03-28 01:52:00,
2013-03-27 21:02:00,28.0,25.0,30.27,North,-999,-999.0,-999.0,86,-99.99,,,-99.99,,2013-03-28 02:02:00,
2013-03-27 21:12:00,28.0,25.0,30.28,North,-999,-999.0,-999.0,86,-99.99,,,-99.99,,2013-03-28 02:12:00,
2013-03-27 21:22:00,28.0,25.0,30.28,North,-999,-999.0,-999.0,86,-99.99,,,-99.99,,2013-03-28 02:22:00,
2013-03-27 21:32:00,28.0,23.0,30.28,North,-999,-999.0,-999.0,79,-99.99,,,-99.99,,2013-03-28 02:32:00,
2013-03-27 21:42:00,28.0,23.0,30.28,North,-999,-999.0,-999.0,79,-99.99,,,-99.99,,2013-03-28 02:42:00,
2013-03-27 21:52:00,28.0,23.0,30.28,North,-999,-999.0,-999.0,79,-99.99,,,-99.99,,2013-03-28 02:52:00,
2013-03-27 22:02:00,27.0,21.0,30.29,North,-999,-999.0,-999.0,79,-99.99,,,-99.99,,2013-03-28 03:02:00,
2013-03-27 22:12:00,27.0,21.0,30.29,North,-999,-999.0,-999.0,79,-99.99,,,-99.99,,2013-03-28 03:12:00,
2013-03-27 22:22:00,27.0,21.0,30.29,North,-999,-999.0,-999.0,79,-99.99,,,-99.99,,2013-03-28 03:22:00,
2013-03-27 22:33:00,27.0,21.0,30.29,North,-999,-999.0,-999.0,79,-99.99,,,-99.99,,2013-03-28 03:33:00,
2013-03-27 22:43:00,27.0,21.0,30.29,North,-999,-999.0,-999.0,79,-99.99,,,-99.99,,2013-03-28 03:43:00,
2013-03-27 22:52:00,27.0,21.0,30.29,North,-999,-999.0,-999.0,79,-99.99,,,-99.99,,2013-03-28 03:52:00,
2013-03-27 23:02:00,27.0,21.0,30.29,North,-999,-999.0,-999.0,79,-99.99,,,-99.99,,2013-03-28 04:02:00,
2013-03-27 23:12:00,25.0,21.0,30.29,North,-999,-999.0,-999.0,85,-99.99,,,-99.99,,2013-03-28 04:12:00,
2013-03-27 23:23:00,25.0,21.0,30.29,North,-999,-999.0,-999.0,85,-99.99,,,-99.99,,2013-03-28 04:23:00,
2013-03-27 23:32:00,25.0,21.0,30.28,North,-999,-999.0,-999.0,85,-99.99,,,-99.99,,2013-03-28 04:32:00,
2013-03-27 23:42:00,25.0,21.0,30.28,North,-999,-999.0,-999.0,85,-99.99,,,-99.99,,2013-03-28 04:42:00,
2013-03-27 23:52:00,25.0,21.0,30.28,North,-999,-999.0,-999.0,85,-99.99,,,-99.99,,2013-03-28 04:52:00,